Regional Weather Roundup
Issued by NWS

Current Version | Previous Version | Text Only | Print | Product List | Glossary On
Versions: 1 2 3 4 5 6 7 8 9 10 11 12 13 14 15 16 17 18 19 20 21 22 23 24 25 26 27
000
ASUS44 KBMX 250610
RWRAL

ALABAMA REGIONAL WEATHER ROUNDUP
NATIONAL WEATHER SERVICE BIRMINGHAM AL
100 AM CDT MON SEP 25 2017

NOTE: "FAIR" INDICATES FEW OR NO CLOUDS BELOW 12,000 FEET
WITH NO SIGNIFICANT WEATHER AND/OR OBSTRUCTIONS TO VISIBILITY.

THE REMARK "TC" DENOTES TEMPERATURE IN DEGREES CELSIUS.

ALZ001>011-014-016>018-020-250700-
NORTH ALABAMA

CITY           SKY/WX    TMP DP  RH WIND       PRES   REMARKS
MUSCLE SHOALS  MOCLDY    69  66  90 CALM      30.00F
6HR MIN TEMP:  68; 6HR MAX TEMP:  77;

HUNTSVILLE     CLEAR     70  69  97 CALM      30.00S
6HR MIN TEMP:  70; 6HR MAX TEMP:  80;

DECATUR        CLEAR     66  66 100 CALM      30.01R
6HR MIN TEMP:  65; 6HR MAX TEMP:  74;

HALEYVILLE     FAIR      67  67 100 CALM      30.03S
6HR MIN TEMP:  67; 6HR MAX TEMP:  73;

GADSDEN        PTCLDY    66  66 100 NW3       30.01S
6HR MIN TEMP:  66; 6HR MAX TEMP:  76;

$$

ALZ012-013-022-023-030>036-040>044-250700-
WEST CENTRAL ALABAMA

CITY           SKY/WX    TMP DP  RH WIND       PRES   REMARKS
TUSCALOOSA     CLOUDY    73  71  93 N3        29.96F
6HR MIN TEMP:  71; 6HR MAX TEMP:  79;

DEMOPOLIS        N/A     72  69  90 CALM      29.94F
6HR MIN TEMP:  71; 6HR MAX TEMP:  79;

$$

ALZ015-024>026-033>036-041>044-250700-
CENTRAL ALABAMA

CITY           SKY/WX    TMP DP  RH WIND       PRES   REMARKS
BIRMINGHAM     CLOUDY    74  66  76 NE3       30.01F
6HR MIN TEMP:  72; 6HR MAX TEMP:  80;

MONTGOMERY     MOCLDY    76  67  73 CALM      29.95F
6HR MIN TEMP:  75; 6HR MAX TEMP:  81;

SHELBY CO ARPT CLOUDY    74  68  81 CALM      29.98F
6HR MIN TEMP:  72; 6HR MAX TEMP:  77;

MAXWELL AFB    CLOUDY    74  69  85 NE3       29.94F
6HR MIN TEMP:  74; 6HR MAX TEMP:  80; 6HR PCP: TRACE;

GREENVILLE     FAIR      74  66  76 NE3       29.94F
6HR MIN TEMP:  73; 6HR MAX TEMP:  78;

SELMA          FAIR      73  68  83 NE3       29.95S
PRATTVILLE     FAIR      73  68  85 CALM      29.95F
6HR MIN TEMP:  72; 6HR MAX TEMP:  76;

BESSEMER       FAIR      73  67  81 E5        30.00S
6HR MIN TEMP:  72; 6HR MAX TEMP:  77;

TALLADEGA      FAIR     N/A N/A N/A MISG      30.00F
PELL CITY      CLEAR     66  66 100 CALM      30.00S FOG
MARION         FAIR      73  68  84 MISG      29.95S
6HR MIN TEMP:  71; 6HR MAX TEMP:  77;

SYLACAUGA      FAIR      70  70 100 CALM      29.99F
6HR MIN TEMP:  68; 6HR MAX TEMP:  78;

$$

ALZ019-021-028-029-037-038-045>048-250700-
EAST CENTRAL ALABAMA

CITY           SKY/WX    TMP DP  RH WIND       PRES   REMARKS
ANNISTON       CLEAR     68  66  93 CALM      30.00F
6HR MIN TEMP:  68; 6HR MAX TEMP:  76;

ALEXANDER CITY MOCLDY    69  66  90 CALM      29.99S
6HR MIN TEMP:  68; 6HR MAX TEMP:  77;

AUBURN         NOT AVBL
$$

ALZ051>064-250700-
SOUTHWEST ALABAMA

CITY           SKY/WX    TMP DP  RH WIND       PRES   REMARKS
MOBILE         CLOUDY    74  69  85 NE7       29.93F
6HR MIN TEMP:  74; 6HR MAX TEMP:  76;

BROOKLEY FIELD CLOUDY    78  72  81 NE6       29.93F
6HR MIN TEMP:  76; 6HR MAX TEMP:  80;

EVERGREEN      CLOUDY    72  70  93 CALM      29.94F
6HR MIN TEMP:  72; 6HR MAX TEMP:  77; 6HR PCP: TRACE;

$$

ALZ049-050-065>069-250700-
SOUTHEAST ALABAMA

CITY           SKY/WX    TMP DP  RH WIND       PRES   REMARKS
DOTHAN         CLOUDY    73  67  81 NE3       29.97S
6HR MIN TEMP:  71; 6HR MAX TEMP:  77;

OZARK          CLOUDY    73  67  81 N5        29.93S
6HR MIN TEMP:  73; 6HR MAX TEMP:  78;

TROY           PTCLDY    69  68  96 CALM      29.96S
6HR MIN TEMP:  69; 6HR MAX TEMP:  75;

EUFAULA        FAIR      68  67  96 CALM      29.94S
6HR MIN TEMP:  68; 6HR MAX TEMP:  74;

$$




USA.gov is the U.S. government's official web portal to all federal, state and local government web resources and services.